Location: Cosy Dell
(34.2789°N, 117.4537°W)
Time: 21:05:54
(UTC+00:00)

COSMOS 2455 - Pass Details

Date: 14 July 2020
Orbit: 898 x 911 km, 67.1° (Epoch: 13 August)

Event Time Altitude Azimuth Distance (km) Brightness Sun altitude
Rises 06:52:13 0° 331° (NNW) 3,546 7.0 -32.1°
Reaches altitude 10° 06:54:45 10° 330° (NNW) 2,601 6.0 -32.3°
Enters shadow 06:59:33 56° 308° (NW) 1,072 3.3 -32.6°
